World > North America > United States > Texas > West Lake Hills  

West Lake Hills, TX Hourly Weather Updates

Feedback E-mail the Weather

Quick Clicks

West Lake Hills, TX Weather Maps

°F °C°F °C
West Lake Hills Weather Map
UTC Time: 7/19/2024, 08:19
Your Time:

West Lake Hills, TX Regional Weather

Expires:202407190900;;292927
ASUS44 KSJT 190810
RWRSJT
WEST CENTRAL TEXAS REGIONAL WEATHER ROUNDUP
NATIONAL WEATHER SERVICE SAN ANGELO TX
300 AM CDT FRI JUL 19 2024

NOTE: "FAIR" INDICATES FEW OR NO CLOUDS BELOW 12,000 FEET WITH NO
SIGNIFICANT WEATHER AND/OR OBSTRUCTIONS TO VISIBILITY.


TXZ145-158-159-173-191-192-194-205-207-220-223-190900-
CENTRAL AND SOUTH CENTRAL TEXAS
  
CITY           SKY/WX    TMP DP  RH WIND       PRES   REMARKS
AUSTIN/BERGSTM MOCLDY    76  72  87 NE5       30.02S TC  24           
WACO           PTCLDY    74  71  91 N3        30.05R TC  23           
HILLSBORO      CLEAR     73  73 100 CALM      30.06R TC  23           
TEMPLE         MOCLDY    74  72  93 CALM      30.06S TC  23           
KILLEEN-GRAY   PTCLDY    76  71  83 E3        30.05F TC  25           
FORT HOOD      MOCLDY    75  71  88 CALM      30.05S TC  24           
GEORGETOWN     LGT RAIN  74  70  87 VRB3      30.07R TC  23           
LAGO VISTA     PTCLDY    73  70  91 E9        30.10S TC  23           
SAN MARCOS     MOCLDY    77  76  96 N3        30.03F TC  25           
NEW BRAUNFELS  PTCLDY    79  74  84 SW8       30.00F TC  26           
RANDOLPH AFB   PTCLDY    80  71  72 SW5       30.00S TC  27           
SAN ANTONIO    MOCLDY    82  70  66 SE5       30.04R TC  28           
STINSON        PTCLDY    79  71  76 CALM      30.01R TC  26           
PLEASANTON     NOT AVBL                                               
LA GRANGE      MOCLDY    79  79 100 W6        29.99F TC  26           
GIDDINGS       RAIN      73  71  92 N6        30.06F TC  23           
$$


SKY/WX - Weather  TMP - Temperature  DP - Dew Point  RH - Humidity
WIND - Wind Direction/Speed PRES - Barometric Pressure VSB - Visibility
WCI - Wind Chill Index E13G22 Wind - East Wind 13 mph/Gusts of 22 mph

Trending Headlines

Trending Entertainment Headlines

West Lake Hills Radar Loop

Use the map search tool if you want to place a location marker on the radar map...

West Lake Hills Quick Facts

National Two Day Weather Forecast


E-mail the West Lake Hills Weather Forecast

Voice your opinion or tell us about page issues...